Home   Weather   Carrollton   Past weeks

Flag for USA Past Weather in Carrollton, Texas, USA — Yesterday and Last 2 Weeks

Now
35 °F

Mostly cloudy.


Feels Like: 26 °F
Forecast: 31 / 37 °F
Wind: 15 mph from North

Location: Dallas Love Field

Current Time: Dec 8, 2016 at 12:05:47 pm

Latest Report: Dec 8, 2016 at 10:53 am


Visibility: 10 mi

Pressure: 30.67 "Hg

Humidity: 54%

Dew Point: 20 °F

Location of CarrolltonLocation

Past Weather in Carrollton — Graph

°F

Carrollton Temperature Yesterday

Maximum temperature yesterday: 53 °F (at 1:57 pm)
Minimum temperature yesterday: 39 °F (at 4:53 am)
Average temperature yesterday: 47 °F

High & Low Weather Summary for the Past Weeks

 TemperatureHumidityPressure
High73 °F (Nov 29, 1:53 pm)96% (Dec 5, 9:59 pm)30.67 "Hg (Dec 5, 9:59 pm)
Low34 °F (Dec 8, 8:53 am)19% (Dec 1, 12:53 pm)29.42 "Hg (Nov 28, 2:53 pm)
Average55 °F65%30.02 "Hg
* Reported Nov 23 10:53 am — Dec 8 10:53 am, Carrollton, Weather by CustomWeather, © 2016

Note: Actual official high and low records may vary slightly from our data, if they occured in-between our weather recording intervals... More about our weather records

Advertising

Carrollton Weather History for the Previous 24 Hours

Scroll right to see more
 ConditionsComfort  
Time TempWeatherWind HumidityBarometerVisibility
10:53 am
Thu, Dec 8
35 °FMostly cloudy.15 mph54%30.67 "Hg10 mi
9:53 am35 °FOvercast.14 mph50%30.67 "Hg10 mi
8:53 am34 °FMostly cloudy.21 mph52%30.63 "Hg10 mi
7:53 am35 °FMostly cloudy.22 mph59%30.57 "Hg10 mi
6:53 am35 °FOvercast.13 mph67%30.55 "Hg10 mi
5:53 am36 °FPartly cloudy.15 mph70%30.52 "Hg10 mi
4:53 am37 °FPassing clouds.17 mph62%30.48 "Hg10 mi
3:53 am39 °FPassing clouds.21 mph55%30.46 "Hg10 mi
2:53 am39 °FPassing clouds.15 mph55%30.45 "Hg10 mi
1:53 am39 °FPassing clouds.15 mph65%30.44 "Hg10 mi
12:53 am40 °FMostly cloudy.16 mph68%30.40 "Hg10 mi
11:53 pm
Wed, Dec 7
42 °FMostly cloudy.16 mph71%30.37 "Hg10 mi
10:53 pm43 °FMostly cloudy.18 mph76%30.35 "Hg10 mi
9:53 pm46 °FMostly cloudy.14 mph77%30.30 "Hg10 mi
8:53 pm48 °FMostly cloudy.17 mph77%30.27 "Hg10 mi
7:53 pm51 °FMostly cloudy.9 mph71%30.23 "Hg10 mi
6:53 pm51 °FMostly cloudy.12 mph69%30.20 "Hg10 mi
5:53 pm52 °FMostly cloudy.13 mph61%30.15 "Hg10 mi
4:53 pm52 °FMore clouds than sun.7 mph66%30.12 "Hg10 mi
3:53 pm53 °FOvercast.8 mph64%30.10 "Hg10 mi
2:53 pm53 °FOvercast.6 mph64%30.09 "Hg10 mi
1:57 pm53 °FMostly cloudy.6 mph64%30.09 "Hg7 mi
12:53 pm52 °FOvercast.No wind66%30.08 "Hg8 mi
Weather by CustomWeather, © 2016

See weather overviewHow to use our weather pages